User: anonymous   Login
Location: Unspecified
(0.0000°N, 0.0000°E)
Time: 04:35:21
(UTC+00:00)
Language:

STARLINK-2387 - Orbit

View from above orbital plane
View from above orbital plane
View from above satellite
View from above satellite

Ground track
Ground track

The orbit is defined by the following mean orbital elements,

1 47806U          26145.53345723 +.00000000 +00000-0 +67730-4 0 00005
2 47806  53.1561 245.5076 0002027  88.8888 271.2345 15.30198492    02
Epoch (UTC): 25 May 2026 12:48:10
Eccentricity: 0.0002027
inclination: 53.1561°
perigee height: 474 km
apogee height: 477 km
right ascension of ascending node: 245.5076°
argument of perigee: 88.8888°
revolutions per day: 15.30198492
mean anomaly at epoch: 271.2345°

The dashed part of the orbit path shows where the satellite is in the earth's shadow,  

DLR